Terminal Aerodrome Forecast
Issued by NWS Nashville, TN

Home | Current Version | Previous Version | Text Only | Print | Product List | Glossary On
Versions: 1 2 3 4 5 6 7 8 9 10 11 12 13 14 15 16 17 18 19 20 21 22 23 24 25 26 27 28 29 30
000
FTUS44 KOHX 271000 AAE
TAFCSV
TAF AMD
KCSV 271006Z 2710/2806 36010KT P6SM OVC015
     FM271400 36009KT 5SM BR OVC015
     FM271600 36009KT P6SM OVC025
     FM271800 33010G16KT P6SM OVC050=

USA.gov is the U.S. government's official web portal to all federal, state and local government web resources and services.